Starlink 31032

operational
NORAD ID: 58535 Int'l Des: 2023-192 Owner: SPXS Country: US Constellation: starlink
LEOCIRCULAR

Über Starlink 31032

Beschreibung wird geladen...

Live-Position

3D-Globus wird geladen...

Nächste Überflüge

Höhenverlauf

Altitude vs Time

uPlot chart will show altitude changes over time

Zweizeiliger Elementsatz

1 58535U 23192E 25306.43798950 .00008569 00000-0 30105-3 0 9994
2 58535 53.1594 293.7364 0001431 88.7520 271.3645 15.30205745106500
Epoch: 2. Nov. 2025 • Age: 10 hours

Aktueller Status

Höhe 486.6 km
Geschwindigkeit 7.62 km/s
Subsatellitenpunkt -34.16°S, 146.32°E
Startdatum 8. Dez. 2023
Alter 1.9 years
Typ internet

Technische Details

Klassifizierung Payload
Masse 730.00 kg
Trockenmasse 700.00 kg
Gesamtmasse 730.00 kg
Länge 0.30 m
Durchmesser 4.10 m
Spannweite 29.00 m
Form Box + pan
Hersteller SPXS
Bus-Typ Starlink V2M
Phasenstatus In Orbit
Besitzer/Staat SPXS/US

Große Konstellationen

Loading constellations...